sat.trackr.live / text

‹ back to catalog

STARLINK-5188

NORAD 54096 · 2022-136AX

PAYLOAD ACTIVE UNKNOWN

§ Identity

Operator
Country
US
Launch date
2022-10-20
Launch site
AFETR
Launch vehicle
Mass (kg)
RCS (m²)

Purposes: comms

External: N2YO · Heavens-Above · Gunter

§ Orbital elements

Epoch: 2026-05-24T23:25:14.949408Z

Period
95.44 min
Inclination
53.2158°
Eccentricity
0.0001308
Mean motion
15.08804619 rev/d
Perigee alt
538.9 km
Apogee alt
540.8 km
Semi-major
6,918.0 km
B*
-1.3020e-4
RAAN
351.4488°
Arg perigee
80.5380°
Mean anomaly
279.5760°
Rev number
19,850

§ Raw data

STARLINK-51881 54096U 22136AX  26144.97586747 -.00002357  00000+0 -13020-3 0  99952 54096  53.2158 351.4488 0001308  80.5380 279.5760 15.08804619198500

JSON: /api/v1/satellites/54096 · /tle

For live sub-satellite position, see the globe view (requires WebGL).

§ Visibility from observer

Set your observer location to see the next 7 days of passes ≥ 10°. The values pass through the URL so the page stays shareable.

No JS? Fill the form by hand. The geolocation button needs JavaScript.